www.pogodaiklimat.ru

Погода и климат >> Архив погоды >> Таджикистан >> Исанбай


ПОГОДА в Исанбай

  • Прогноз погоды в Исанбай
  • Монитор погоды в Исанбай

АРХИВ ПОГОДЫ в Исанбай

Время (UTC), дата Ветер
(напр.,м/с)
 
Видим.   Явления Облачность Т
(С)
Тd
(С)
f
(%)
Тe
(С)
Тes
(С)
Комфортность P
(гПа)
Po
(гПа)
Тmin
(С)
Tmax
(С)
R
(мм)
R24
(мм)
S
(см)
03 15.08 штиль 0 50 км 1/0
[Ac trans]
+22.8 +9.3 42 +24 +30 комфорт 1013.2 950.1 +15.7
06 15.08 З 1 50 км ясно +28.1 +7.0 26 +27 +46 жарко 1012.2 950.3
09 15.08 ЮЗ 1 50 км 1/1 1000 м
[Cu hum]
+32.4 +7.8 22 +31 +48 жарко 1010.7 949.7
12 15.08 ЮЗ 2 50 км ясно +33.1 +8.9 23 +32 +36 жарко 1007.0 946.4
15 15.08 ЮЗ 1 н/о ясно +26.7 +12.2 41 +28 +28 жарко 1006.8 945.0 +33.5
18 15.08 ЮВ 2 н/о ясно +25.2 +11.2 41 +26 +26 жарко 1008.6 946.4
21 15.08 СВ 3 н/о ясно +23.0 +11.2 47 +25 +25 комфорт 1009.7 946.9
00 16.08 В 2 н/о ясно +19.1 +9.0 52 +20 +20 1009.3 945.7
03 16.08 С 2 50 км ясно +21.1 +9.3 47 +22 +27 комфорт 1009.5 946.4 +16.3
06 16.08 Ю 3 50 км ясно +28.4 +6.5 25 +27 +41 жарко 1007.9 946.2
09 16.08 Ю 5 50 км 6/3 1000 м
[Cu med, cong Ci sp]
+31.1 +4.8 19 +29 +34 жарко 1006.3 945.3
12 16.08 Ю 4 50 км ясно +31.6 +6.1 20 +30 +32 жарко 1004.6 943.8
15 16.08 ЮЗ 3 н/о ясно +28.1 +6.4 25 +27 +27 жарко 1005.4 943.9 +32.5
18 16.08 штиль 0 н/о ясно +20.9 +4.5 34 +21 +21 комфорт 1008.4 945.2
21 16.08 С 3 н/о ясно +19.0 +6.1 43 +20 +20 1009.7 946.0
00 17.08 штиль 0 н/о ясно +16.9 +5.8 48 +17 +17 1010.7 946.5
03 17.08 СВ 2 20 км ясно +20.1 +8.0 46 +22 +26 комфорт 1010.0 946.6 +14.6
06 17.08 ЮЗ 1 50 км ясно +27.9 +6.5 26 +27 +46 жарко 1008.0 946.2
09 17.08 ЮЗ 2 50 км 1/1 1000 м
[Cu hum]
+32.3 +5.5 19 +30 +44 жарко 1005.4 944.6
12 17.08 ЮЗ 1 50 км ясно +32.5 +7.1 21 +31 +35 жарко 1003.7 943.2
15 17.08 СЗ 1 н/о ясно +28.9 +8.6 28 +28 +28 жарко 1004.3 943.1 +33.5
18 17.08 штиль 0 н/о ясно +21.1 +10.3 50 +23 +23 комфорт 1006.8 943.8
21 17.08 СВ 2 н/о ясно +19.7 +10.5 55 +22 +22 комфорт 1008.2 944.9
00 18.08 СВ 3 н/о ясно +17.7 +9.3 58 +18 +18 1008.7 944.8
03 18.08 СВ 1 50 км ясно +20.9 +7.8 43 +23 +28 комфорт 1008.9 945.8 +16.6
06 18.08 Ю 1 50 км ясно +29.7 +4.6 20 +28 +47 жарко 1007.3 946.0
09 18.08 ЮЗ 3 50 км 1/1 1000 м
[Cu med, cong]
+32.9 +4.0 16 +30 +42 жарко 1006.3 945.6
12 18.08 Ю 1 50 км ясно +33.6 +4.1 16 +31 +35 жарко 1005.5 944.9
15 18.08 Ю 1 н/о 3/0
[Ac trans Ci fib]
+28.1 +8.1 28 +28 +28 жарко 1007.3 945.6 +34.7
18 18.08 С 1 н/о ясно +21.0 +9.9 49 +24 +24 комфорт 1010.0 946.8
21 18.08 СВ 5 н/о ясно +20.1 +8.9 48 +21 +21 комфорт 1010.4 947.0
00 19.08 СВ 5 н/о ясно +19.9 +8.4 47 +21 +21 комфорт 1010.4 947.0
03 19.08 ЮЗ 3 50 км ясно +22.0 +8.1 41 +23 +27 комфорт 1010.9 947.8 +18.9
06 19.08 Ю 3 50 км ясно +30.5 +8.8 26 +30 +43 жарко 1009.2 948.0
09 19.08 Ю 2 50 км ясно +34.7 +8.4 20 +33 +49 жарко 1007.5 947.1
12 19.08 Ю 3 50 км ясно +34.3 +5.9 17 +32 +35 жарко 1006.0 945.6
15 19.08 В 2 н/о ясно +30.9 +6.5 22 +29 +29 жарко 1007.8 946.6 +35.6
18 19.08 СВ 3 н/о ясно +23.1 +9.2 41 +25 +25 комфорт 1010.4 947.6
21 19.08 СВ 3 н/о ясно +21.1 +8.6 45 +22 +22 комфорт 1011.1 947.8
00 20.08 СВ 5 н/о ясно +19.9 +9.2 50 +21 +21 комфорт 1011.0 947.5
03 20.08 штиль 0 50 км ясно +21.5 +11.0 51 +23 +29 комфорт 1012.2 949.0 +19.1
06 20.08 ЮЗ 2 50 км ясно +31.3 +7.4 23 +30 +46 жарко 1009.3 948.2
09 20.08 Ю 4 50 км ясно +34.9 +5.1 16 +32 +43 жарко 1007.7 947.3
12 20.08 Ю 5 50 км ясно +34.3 +7.3 19 +32 +34 жарко 1006.1 945.7
15 20.08 Ю 1 н/о ясно +29.6 +9.2 28 +29 +29 жарко 1007.2 945.9 +36.3
18 20.08 СВ 2 н/о ясно +23.4 +8.9 40 +25 +25 комфорт 1009.1 946.5
21 20.08 СВ 3 н/о ясно +21.4 +7.8 42 +22 +22 комфорт 1009.4 946.4
00 21.08 СВ 1 н/о ясно +19.9 +9.2 50 +22 +22 комфорт 1010.7 947.3
03 21.08 С 2 50 км ясно +23.0 +9.5 42 +25 +29 комфорт 1010.1 947.3 +19.4
06 21.08 ЮЗ 1 50 км ясно +30.7 +11.2 30 +31 +49 жарко 1007.7 946.6
09 21.08 З 1 50 км ясно +36.0 +7.6 18 +34 +52 опасность
солнечного
удара
1005.1 945.2
12 21.08 ЮЗ 3 50 км ясно +35.7 +9.7 21 +35 +38 очень
жарко
1003.1 943.3
15 21.08 ЮВ 1 н/о ясно +31.3 +7.0 22 +30 +30 жарко 1004.4 943.5 +37.1
18 21.08 ЮВ 1 н/о ясно +25.0 +8.8 36 +26 +26 жарко 1006.4 944.3
21 21.08 СВ 2 н/о ясно +23.2 +9.7 42 +25 +25 комфорт 1008.0 945.4
00 22.08 СВ 4 н/о ясно +21.3 +10.0 48 +23 +23 комфорт 1007.6 944.7

 

Местоположение метеостанции Исанбай (Таджикистан): широта 37.97 долгота 68.65 высота над уровнем моря 640 м.

В архиве по умолчанию представлена погода в Исанбай за последнюю неделю. Архивные данные за месяц целиком и за предыдущие месяцы, начиная с января 2011 года, Вы можете получить, выбрав интересующий диапазон дат из раскрывающегося списка и нажав кнопку "Ввод!".


*Определитесь, кто Вы:
робот инопланетянин человек

Внимание! Время в таблицах - всемирное. Для получения местного времени необходимо прибавить поправку, которая равна 5 ч.

Смотрите также архив погоды в соседних городах и на ближайших метеорологических станциях:

Погода в Ганжине (Таджикистан) (7 км)
Погода в Курган-Тюбе (Таджикистан) (20 км)
Погода в Дангаре (Таджикистан) (60 км)
Погода в Душанбе (Таджикистан) (66 км)
Погода в Денау (Сухрандарьинская область, Узбекистан) (74 км)
Погода в Шурчи (Сухрандарьинская область, Узбекистан) (75 км)
Погода в Пархаре (Таджикистан) (84 км)
Погода в Санглоке (Таджикистан) (88 км)
Погода в Пьяндже (Таджикистан) (91 км)
Погода в Кулябе (Таджикистан) (99 км)

Пояснения к столбцам:

Ветер - указаны скорость ветра в м/с - средняя за 10 мин, порывы в срок и между сроками (в фигурных скобках) и направление, откуда дует ветер: С - северный, СВ - северо-восточный, В - восточный, ЮВ - юго-восточный, Ю - южный, ЮЗ - юго-западный, З - западный, СЗ - северо-западный.
Видимость - горизонтальная дальность видимости в метрах или километрах. При видимости от 1 до 10 км при отсутствии осадков обычно наблюдается дымка, при ухудшении видимости до 1 км и менее - туман. В сухую погоду видимость может ухудшаться дымом, пылью или мглою.
Явления - указаны атмосферные явления, наблюдавшиеся в срок или в последний час перед сроком; фигурными скобками обозначены явления, наблюдавшиеся между сроками (за 1-3 часа до срока); квадратными скобками обозначены град или гололедные отложения с указанием их диаметра в мм.
Облачность - указаны через наклонную черту общая и нижняя облачность в баллах и высота нижней границы облаков в метрах; квадратными скобками обозначены формы облаков: Ci - перистые, Cs - перисто-слоистые, Cc - перисто-кучевые, Ac - высококучевые, As - высокослоистые, Sc - слоисто-кучевые, Ns - слоисто-дождевые, Cu - кучевые, Cb - кучево-дождевые. Подробнее классификацию облаков см. в Атласе облаков (PDF).
T - Температура воздуха - температура, измеренная на высоте 2 м над землей.
Td - Температура точки росы - температура, при понижении до которой содержащийся в воздухе водяной пар достигнет насыщения.
f - Относительная влажность воздуха - влажноcть воздуха, измеренная на высоте 2 м над землей.
Te - Эффективная температура - температура, которую ощущает одетый по сезону человек в тени. Характеристика душности погоды. При расчете учитывается влияние влажности воздуха и скорости ветра на теплоощущения человека.
Tes - Эффективная температура на солнце - температура, которую ощущает человек, с поправкой на солнечный нагрев. Характеристика знойности погоды. Зависит от высоты солнца над горизонтом, облачности и скорости ветра. Ночью, в пасмурную погоду, а также при ветре 12 м/с и более поправка равна нулю.
P - Атмосферное давление - приведенное к уровню моря атмосферное давление.
Po - Атмосферное давление - измеренное на уровне метеостанции атмосферное давление.
Tmin - Минимальная температура - минимум температуры воздуха на высоте 2 м над землей.
Tmax - Максимальная температура - максимум температуры воздуха на высоте 2 м над землей.
R - Количество осадков - Количество выпавших осадков за период времени, мм. При наведении курсора мыши на число - период времени, за который выпало указанное количество осадков.
R24 - Количество осадков - Количество выпавших осадков за 24 часа, мм.
S - Снежный покров - Высота снежного покрова, см. При наведении курсора мыши на число - состояние снежного покрова и степень покрытия местности в баллах.